Regional Weather Roundup
Issued by NWS

Home | Current Version | Previous Version | Graphics & Text | Print | Product List | Glossary On
Versions: 1 2 3 4 5 6 7 8 9 10 11 12 13 14 15 16 17 18 19 20 21 22 23 24 25 26 27 28 29 30 31 32 33 34 35 36 37 38 39 40 41 42 43 44 45 46 47 48 49 50
000
ASUS43 KOAX 252210
RWRNE

WEATHER ROUNDUP FOR NEBRASKA
NATIONAL WEATHER SERVICE OMAHA NE
400 PM CST THU DEC 25 2014

NOTES: SATELLITE DATA IS BEING USED TO AUGMENT CLOUD COVER ABOVE
       12000 FEET.
       "FAIR" INDICATES FEW OR NO CLOUDS BELOW 12,000 FEET WITH NO
       SIGNIFICANT WEATHER AND/OR OBSTRUCTIONS TO VISIBILITY.

  * THESE STATIONS DO NOT REPORT WEATHER SUCH AS RAIN...SNOW OR FOG.

NEZ001>004-019>022-054>056-252300-
NEBRASKA PANHANDLE

CITY           SKY/WX    TMP DP  RH WIND       PRES   REMARKS
SCOTTSBLUFF    LGT SNOW  29  25  85 NE20      29.65R FOG     WCI  16
ALLIANCE       LGT SNOW  27  25  92 N26G33    29.64R VSB 3/4 WCI  12
CHADRON        CLOUDY    27  23  85 N23       29.75R FOG     WCI  12
KIMBALL        LGT SNOW  27  25  91 N16       29.57R WCI  15
SIDNEY         LGT SNOW  28  25  88 NE20      29.60R FOG     WCI  15
$$

NEZ057>060-069>072-079>082-252300-
SOUTHWEST NEBRASKA

CITY           SKY/WX    TMP DP  RH WIND       PRES   REMARKS
NORTH PLATTE   CLOUDY    34  25  69 N18G26    29.59R WCI  23
IMPERIAL       PTSUNNY   37  26  64 NE20      29.57R WCI  27
LEXINGTON      SUNNY     41  26  55 NE8       29.55R
MCCOOK         SUNNY     42  23  46 NE10      29.53R
OGALLALA       CLOUDY    33  28  83 NE21G29   29.61R WCI  21
$$

NEZ005>010-023>029-035>040-094-252300-
NORTH CENTRAL NEBRASKA

CITY           SKY/WX    TMP DP  RH WIND       PRES   REMARKS
VALENTINE      CLOUDY    29  26  89 N17G26    29.68R FOG     WCI  17
AINSWORTH      CLOUDY    29  28  97 N21G28    29.65R FOG     WCI  16
BROKEN BOW     PTSUNNY   34  27  75 N15       29.58R WCI  24
O`NEILL        CLOUDY    32  31  94 N17       29.64R WCI  21
ORD            CLEAR     37  26  64 N16G23    29.58R WCI  28
THEDFORD       CLOUDY    31  30  95 NE22G30   29.63R FOG     WCI  19
$$

NEZ041-046>049-061>064-073>077-083>087-252300-
SOUTH CENTRAL NEBRASKA

CITY           SKY/WX    TMP DP  RH WIND       PRES   REMARKS
GRAND ISLAND   CLEAR     45  26  47 S6        29.56R
AURORA         CLEAR     45  28  52 SE6       29.56R
HASTINGS       SUNNY     46  25  43 S6        29.52S
HEBRON         PTCLDY    49  28  44 S9G18     29.56R
HOLDREGE       SUNNY     44  24  45 CALM      29.53R
KEARNEY *      SUNNY     45  25  45 NE7       29.54R
YORK           CLEAR     46  30  53 S10       29.58R
$$

NEZ011>018-030>034-042>045-252300-
NORTHEAST NEBRASKA

CITY           SKY/WX    TMP DP  RH WIND       PRES   REMARKS
NORFOLK        CLOUDY    40  32  73 E5        29.60R
ALBION         PTCLDY    38  30  73 NE10      29.60R WCI  30
BLAIR          CLEAR     48  34  57 SE8       29.61R
COLUMBUS *     CLEAR     45  30  57 S12       29.62R
FREMONT        CLEAR     48  32  53 SE12      29.61R
TEKAMAH        CLEAR     46  37  71 SE7       29.62R
WAYNE          CLEAR     41  33  74 E8        29.62R
$$

NEZ050>053-065>068-078-088>093-252300-
SOUTHEAST NEBRASKA

CITY           SKY/WX    TMP DP  RH WIND       PRES   REMARKS
LINCOLN        CLEAR     50  30  46 S13       29.58R
OMAHA EPPLEY   PTCLDY    49  32  52 S15       29.63R
BEATRICE       CLEAR     49  31  49 S15G21    29.58R
FALLS CITY     PTCLDY    52  30  43 S16       29.61R
NEBRASKA CITY  CLEAR     50  27  40 S14       29.60R
PLATTSMOUTH    CLEAR     49  30  47 S10       29.61R
$$

NEZ044-045-051>053-067-252300-
OMAHA AREA

CITY           SKY/WX    TMP DP  RH WIND       PRES   REMARKS
OMAHA EPPLEY   PTCLDY    49  32  52 S15       29.63R
BLAIR          CLEAR     48  34  57 SE8       29.61R
FREMONT        CLEAR     48  32  53 SE12      29.61R
MILLARD        CLEAR     50  33  52 SE9       29.61R
OFFUTT AFB     CLEAR     49  36  60 SE9       29.61R
PLATTSMOUTH    CLEAR     49  30  47 S10       29.61R
WAHOO          FAIR      48  31  52 S9        29.60R
$$


USA.gov is the U.S. government's official web portal to all federal, state and local government web resources and services.